Location: Bacea
(45.9500°N, 22.6667°E)
Time: 21:24:24
(UTC+00:00)

Cosmos 1356 - Pass Details

Date: 16 October 2021
Orbit: 433 x 436 km, 81.1° (Epoch: 29 November)

Event Time Altitude Azimuth Distance (km) Brightness Sun altitude
Rises 16:07:55 0° 353° (N) 2,436 7.1 -5.4°
Reaches altitude 10° 16:10:02 10° 359° (N) 1,563 6.1 -5.7°
Maximum altitude 16:13:21 50° 76° (ENE) 572 3.5 -6.3°
Drops below altitude 10° 16:16:39 10° 153° (SSE) 1,551 5.9 -6.9°
Sets 16:18:45 0° 159° (SSE) 2,416 6.9 -7.2°
